Hutchinson, MN

5:04 PM CDT on May 26, 2017 (GMT -0500)
Hutchinson Municipal-Butler

Weather History for KHCD - November, 2012

Change the Weather History Date:

Friday, November 9, 2012

  Actual Average Record
Temperature  
Mean Temperature 44 °F -  
Max Temperature 53 °F 42 °F 73 °F (1999)
Min Temperature 35 °F 27 °F 8 °F (1991)
Degree Days  
Heating Degree Days 21    
Moisture  
Dew Point 40 °F    
Average Humidity 86    
Maximum Humidity 100    
Minimum Humidity 70    
Precipitation  
Precipitation 0.00 in - - ()
Sea Level Pressure  
Sea Level Pressure 29.96 in    
Wind  
Wind Speed 13 mph (ENE)    
Max Wind Speed 18 mph    
Max Gust Speed 24 mph    
Visibility 9 miles    
Events      
Averages and records for this station are not official NWS values.
T = Trace of Precipitation, MM = Missing Value Source: NWS Daily Summary

Daily Weather History Graph

Daily Weather History Graph

Search for Another Location

Airport or City:

Trip Planner

Search our weather history database for the weather conditions in past years. The results will help you decide how hot, cold, wet, or windy it might be!

Date:

Astronomy

Nov. 09, 2012 Rise Set
Actual Time 7:07 AM CST 4:54 PM CST
Civil Twilight 6:36 AM CST 5:26 PM CST
Nautical Twilight 6:00 AM CST 6:01 PM CST
Astronomical Twilight 5:26 AM CST 6:35 PM CST
Moon 1:55 AM CST (11/9) 2:18 PM CST (11/9)
Length of Visible Light 10h 49m
Length of Day
9h 47m
Waning Crescent, 23% of the Moon is Illuminated
Nov 9
Waning Crescent
Nov 13
New
Nov 20
First Quarter
Nov 28
Full
Dec 6
Last Quarter

Hourly Weather History & Observations

Time (CST) Temp. Windchill Dew Point Humidity Pressure Visibility Wind Dir Wind Speed Gust Speed Precip Events Conditions
12:08 AM 39.2 °F 31.6 °F 37.8 °F 95% 30.01 in 10.0 mi NNE 12.7 mph - N/A   Clear
12:29 AM 39.2 °F 32.0 °F 37.8 °F 95% 30.00 in 10.0 mi NE 11.5 mph - N/A   Clear
12:48 AM 39.2 °F 32.0 °F 37.9 °F 95% 30.00 in 10.0 mi NE 11.5 mph - N/A   Clear
1:08 AM 39.2 °F 32.0 °F 37.9 °F 95% 29.99 in 10.0 mi NNE 11.5 mph - N/A   Clear
1:29 AM 38.1 °F 30.2 °F 37.0 °F 96% 29.99 in 10.0 mi NNE 12.7 mph - N/A   Clear
1:48 AM 37.2 °F 29.6 °F 36.1 °F 96% 29.99 in 10.0 mi NNE 11.5 mph 19.6 mph N/A   Clear
2:09 AM 37.4 °F 29.3 °F 36.5 °F 97% 29.99 in 10.0 mi NNE 12.7 mph 17.3 mph N/A   Clear
2:20 AM 37.6 °F 29.6 °F 36.7 °F 97% 29.99 in 10.0 mi NNE 12.7 mph 16.1 mph N/A   Clear
2:50 AM 37.4 °F 28.5 °F 35.6 °F 93% 29.98 in 10.0 mi NE 15.0 mph 18.4 mph N/A   Clear
3:10 AM 39.2 °F 31.6 °F 37.4 °F 93% 29.98 in 10.0 mi NE 12.7 mph - N/A   Clear
3:30 AM 37.4 °F 29.3 °F 35.6 °F 93% 29.99 in 10.0 mi NNE 12.7 mph - N/A   Clear
3:50 AM 37.4 °F 28.9 °F 35.6 °F 93% 29.99 in 10.0 mi NNE 13.8 mph - N/A   Clear
4:10 AM 37.4 °F 28.9 °F 35.6 °F 93% 30.00 in 10.0 mi NNE 13.8 mph - N/A   Clear
4:30 AM 37.4 °F 28.9 °F 35.6 °F 93% 30.00 in 10.0 mi NNE 13.8 mph 18.4 mph N/A   Clear
4:50 AM 37.4 °F 28.5 °F 35.6 °F 93% 30.00 in 10.0 mi NE 15.0 mph 19.6 mph N/A   Clear
5:10 AM 37.4 °F 29.3 °F 35.6 °F 93% 30.00 in 10.0 mi NE 12.7 mph - N/A   Clear
5:30 AM 35.6 °F 26.6 °F 35.6 °F 100% 29.99 in 7.0 mi NE 13.8 mph 19.6 mph N/A   Clear
5:50 AM 35.6 °F 27.1 °F 35.6 °F 100% 30.00 in 7.0 mi NE 12.7 mph - N/A   Clear
6:10 AM 35.6 °F 26.6 °F 35.6 °F 100% 30.00 in 7.0 mi NE 13.8 mph - N/A   Clear
6:30 AM 35.6 °F 26.6 °F 35.6 °F 100% 30.00 in 7.0 mi NE 13.8 mph - N/A   Clear
6:50 AM 35.6 °F 26.2 °F 35.6 °F 100% 30.00 in 7.0 mi NE 15.0 mph 18.4 mph N/A   Clear
7:10 AM 35.6 °F 27.5 °F 35.6 °F 100% 30.01 in 7.0 mi NE 11.5 mph - N/A   Clear
7:30 AM 35.6 °F 27.1 °F 35.6 °F 100% 30.01 in 7.0 mi NE 12.7 mph - N/A   Clear
7:42 AM 36.5 °F 28.2 °F 36.1 °F 99% 30.01 in 5.0 mi NE 12.7 mph - N/A   Clear
7:48 AM 36.5 °F 28.2 °F 36.1 °F 99% 30.01 in 7.0 mi NE 12.7 mph - N/A   Clear
8:09 AM 39.0 °F 31.4 °F 38.5 °F 98% 30.02 in 7.0 mi NE 12.7 mph 17.3 mph N/A   Clear
8:49 AM 39.2 °F 31.6 °F 37.8 °F 95% 30.01 in 10.0 mi ENE 12.7 mph 18.4 mph N/A   Clear
9:08 AM 40.3 °F 32.2 °F 38.3 °F 93% 30.01 in 10.0 mi ENE 15.0 mph - N/A   Clear
9:29 AM 41.7 °F 34.8 °F 39.2 °F 91% 30.01 in 10.0 mi ENE 12.7 mph 19.6 mph N/A   Clear
9:49 AM 42.8 °F 35.8 °F 39.6 °F 88% 30.00 in 10.0 mi ENE 13.8 mph 19.6 mph N/A   Clear
10:09 AM 44.1 °F 37.7 °F 40.1 °F 86% 30.00 in 10.0 mi ENE 12.7 mph - N/A   Clear
10:29 AM 46.6 °F - 41.7 °F 83% 29.99 in 10.0 mi ENE 16.1 mph - N/A   Clear
10:49 AM 48.6 °F - 43.3 °F 82% 29.99 in 10.0 mi ENE 13.8 mph - N/A   Clear
11:09 AM 49.1 °F - 43.0 °F 79% 29.98 in 10.0 mi ENE 15.0 mph 20.7 mph N/A   Clear
11:28 AM 49.1 °F - 42.3 °F 77% 29.97 in 10.0 mi East 15.0 mph 19.6 mph N/A   Clear
11:49 AM 50.7 °F - 42.4 °F 73% 29.97 in 10.0 mi East 15.0 mph 19.6 mph N/A   Clear
12:09 PM 49.1 °F - 41.4 °F 75% 29.96 in 10.0 mi East 13.8 mph 19.6 mph N/A   Clear
12:28 PM 49.1 °F - 41.7 °F 76% 29.96 in 10.0 mi East 12.7 mph 19.6 mph N/A   Clear
12:49 PM 53.2 °F - 44.4 °F 72% 29.95 in 10.0 mi East 13.8 mph - N/A   Clear
1:09 PM 51.8 °F - 43.0 °F 72% 29.93 in 10.0 mi East 15.0 mph - N/A   Clear
1:29 PM 51.8 °F - 43.0 °F 72% 29.93 in 10.0 mi East 11.5 mph 17.3 mph N/A   Clear
1:48 PM 51.8 °F - 43.0 °F 72% 29.92 in 10.0 mi East 12.7 mph 18.4 mph N/A   Clear
2:09 PM 51.8 °F - 43.2 °F 72% 29.90 in 10.0 mi ENE 11.5 mph 18.4 mph N/A   Clear
2:29 PM 53.8 °F - 44.2 °F 70% 29.91 in 10.0 mi ENE 15.0 mph - N/A   Clear
2:49 PM 52.7 °F - 43.3 °F 70% 29.91 in 10.0 mi East 16.1 mph 20.7 mph N/A   Clear
3:09 PM 51.8 °F - 42.6 °F 71% 29.91 in 10.0 mi ENE 13.8 mph 23.0 mph N/A   Clear
3:28 PM 51.8 °F - 43.0 °F 72% 29.92 in 10.0 mi ENE 12.7 mph 18.4 mph N/A   Clear
3:49 PM 49.1 °F - 42.6 °F 78% 29.91 in 10.0 mi NE 12.7 mph - N/A   Clear
4:08 PM 49.1 °F - 42.8 °F 79% 29.91 in 10.0 mi NE 13.8 mph - N/A   Clear
4:28 PM 49.1 °F - 42.4 °F 78% 29.91 in 10.0 mi NE 12.7 mph - N/A   Clear
4:49 PM 49.1 °F - 43.9 °F 82% 29.90 in 10.0 mi NE 12.7 mph 17.3 mph N/A   Clear
5:08 PM 46.6 °F - 41.9 °F 84% 29.90 in 10.0 mi NE 13.8 mph - N/A   Clear
5:28 PM 46.6 °F - 42.1 °F 84% 29.91 in 10.0 mi NE 12.7 mph - N/A   Clear
5:49 PM 46.6 °F - 42.1 °F 84% 29.90 in 10.0 mi NE 13.8 mph 18.4 mph N/A   Scattered Clouds
6:09 PM 46.6 °F - 42.1 °F 84% 29.90 in 10.0 mi NE 15.0 mph - N/A   Overcast
6:28 PM 46.6 °F - 42.1 °F 84% 29.89 in 10.0 mi ENE 15.0 mph - N/A   Mostly Cloudy
6:49 PM 46.6 °F - 41.5 °F 83% 29.90 in 10.0 mi ENE 13.8 mph 17.3 mph N/A   Overcast
7:09 PM 46.6 °F - 41.7 °F 83% 29.91 in 10.0 mi ENE 10.4 mph - N/A   Overcast
7:29 PM 48.6 °F - 42.8 °F 80% 29.93 in 10.0 mi ENE 11.5 mph - N/A   Overcast
7:49 PM 46.6 °F - 41.0 °F 81% 29.93 in 10.0 mi ENE 11.5 mph - N/A   Overcast
8:08 PM 46.6 °F - 41.0 °F 81% 29.93 in 10.0 mi ENE 11.5 mph - N/A   Overcast
8:29 PM 46.6 °F - 41.0 °F 81% 29.93 in 10.0 mi ENE 10.4 mph 16.1 mph N/A   Overcast
8:49 PM 46.6 °F - 41.0 °F 81% 29.93 in 10.0 mi ENE 12.7 mph 18.4 mph N/A   Overcast
9:09 PM 46.6 °F - 41.0 °F 81% 29.93 in 10.0 mi ENE 13.8 mph 19.6 mph N/A   Overcast
9:29 PM 46.6 °F - 41.0 °F 81% 29.93 in 10.0 mi ENE 12.7 mph - N/A   Overcast
9:48 PM 46.6 °F - 41.2 °F 81% 29.92 in 10.0 mi ENE 12.7 mph 17.3 mph N/A   Overcast
10:09 PM 46.6 °F - 41.2 °F 81% 29.90 in 10.0 mi East 15.0 mph 20.7 mph N/A   Overcast
10:29 PM 46.6 °F - 41.0 °F 81% 29.90 in 10.0 mi East 13.8 mph 21.9 mph N/A   Overcast
10:49 PM 46.6 °F - 41.4 °F 82% 29.90 in 10.0 mi East 15.0 mph 19.6 mph N/A   Overcast
11:08 PM 46.6 °F - 42.1 °F 84% 29.88 in 7.0 mi East 15.0 mph 23.0 mph N/A   Overcast
11:29 PM 46.6 °F - 42.8 °F 87% 29.88 in 7.0 mi East 12.7 mph 23.0 mph N/A   Overcast
11:49 PM 45.9 °F 38.5 °F 42.3 °F 87% 29.86 in 7.0 mi East 18.4 mph 24.2 mph N/A   Overcast